This is the latest recevied weather packets stored in our database for station/object KD8DNO-13. If no packets are shown the sender has not sent any weather packets the latest 10 day(s).
| Time | Temp. | Humidity | Pressure | Rain* | Wind** | Luminosity | Snow |
|---|---|---|---|---|---|---|---|
| 1788370983 | 32.22° C | 61% | 1019.9 hPa | 0 mm | - | - | - |
| 1788370683 | 32.78° C | 62% | 1019.9 hPa | 0 mm | - | - | - |
| 1788370383 | 32.22° C | 63% | 1019.9 hPa | 0 mm | - | - | - |
| 1788370083 | 32.22° C | 64% | 1019.9 hPa | 0 mm | - | - | - |
| 1788369783 | 31.67° C | 65% | 1019.9 hPa | 0 mm | - | - | - |
| 1788369483 | 31.67° C | 63% | 1019.9 hPa | 0 mm | - | - | - |
| 1788369183 | 31.67° C | 65% | 1020.3 hPa | 0 mm | - | - | - |
| 1788368883 | 31.67° C | 65% | 1020.3 hPa | 0 mm | - | - | - |
| 1788368583 | 31.11° C | 66% | 1020.3 hPa | 0 mm | - | - | - |
| 1788368283 | 31.11° C | 66% | 1020.3 hPa | 0 mm | - | - | - |
| 1788367983 | 31.11° C | 65% | 1020.3 hPa | 0 mm | - | - | - |
| 1788367707 | 31.11° C | 65% | 1020.3 hPa | 0 mm | - | - | - |
| 1788367383 | 31.11° C | 65% | 1020.3 hPa | 0 mm | - | - | - |
| 1788367083 | 31.11° C | 66% | 1020.3 hPa | 0 mm | - | - | - |
| 1788366783 | 31.11° C | 65% | 1020.3 hPa | 0 mm | - | - | - |
| 1788366483 | 30.56° C | 68% | 1020.3 hPa | 0 mm | - | - | - |
| 1788366183 | 30.56° C | 68% | 1020.3 hPa | 0 mm | - | - | - |
| 1788365883 | 30.56° C | 68% | 1020.3 hPa | 0 mm | - | - | - |
| 1788365583 | 30.56° C | 68% | 1020.3 hPa | 0 mm | - | - | - |
| 1788365283 | 30.56° C | 68% | 1020.3 hPa | 0 mm | - | - | - |
| 1788364983 | 30.56° C | 67% | 1020.3 hPa | 0 mm | - | - | - |
| 1788364683 | 30.56° C | 67% | 1020.6 hPa | 0 mm | - | - | - |
| 1788364383 | 30.56° C | 69% | 1020.6 hPa | 0 mm | - | - | - |
| 1788364083 | 30° C | 69% | 1020.6 hPa | 0 mm | - | - | - |
| 1788363783 | 30.56° C | 67% | 1020.6 hPa | 0 mm | - | - | - |
* Rain latest hour (hover to see other rain measurements)
** Current wind speed in m/s (hover to see current wind gust speed)